START_TIME,STEP,MOV.,A46,t_acc.,A13,t_acc.,M47,t_acc.,A17,t_acc.,A28,t_acc.,M38,t_acc.
1986-01-25 18:00:26.870 ,6,0,,0,0.,4.8,0.,4.8,,0,0.,4.8,0.,4.8
1986-01-25 18:00:31.670 ,6,0,,0,0.,4.8,0.,4.8,,0,0.,4.8,0.,4.8
1986-01-25 18:00:36.470 ,6,0,,0,0.,4.8,0.,4.8,,0,0.,4.8,0.,4.8
1986-01-25 18:00:41.270 ,6,0,,0,2.,4.8,0.,4.8,,0,0.,4.8,0.,4.8
1986-01-25 18:00:46.070 ,6,0,,0,1.,4.8,0.,4.8,,0,0.,4.8,0.,4.8
1986-01-25 18:00:50.870 ,5,0,,0,0.,4.8,0.,4.8,,0,0.,4.8,0.,4.8
1986-01-25 18:00:55.670 ,5,0,,0,1.,4.8,0.,4.8,,0,0.,4.8,0.,4.8
1986-01-25 18:01:00.470 ,5,0,,0,0.,4.8,0.,4.8,,0,0.,4.8,0.,4.8
1986-01-25 18:01:05.270 ,5,0,,0,0.,4.8,0.,4.8,,0,0.,4.8,0.,4.8
1986-01-25 18:01:10.070 ,5,0,,0,0.,4.8,0.,4.8,,0,0.,4.8,0.,4.8
1986-01-25 18:01:14.870 ,5,0,,0,0.,4.8,0.,4.8,,0,0.,4.8,0.,4.8
1986-01-25 18:01:19.670 ,5,0,,0,1.,4.8,0.,4.8,,0,0.,4.8,0.,4.8
1986-01-25 18:01:24.470 ,5,0,,0,0.,4.8,0.,4.8,,0,0.,4.8,0.,4.8
1986-01-25 18:01:29.270 ,5,0,,0,0.,4.8,0.,4.8,,0,0.,4.8,0.,4.8
1986-01-25 18:01:34.070 ,5,0,,0,1.,4.8,0.,4.8,,0,0.,4.8,0.,4.8
1986-01-25 18:01:38.870 ,4,0,,0,2.,4.8,0.,4.8,,0,0.,4.8,0.,4.8
1986-01-25 18:01:43.670 ,4,0,,0,0.,4.8,0.,4.8,,0,0.,4.8,0.,4.8
1986-01-25 18:01:48.470 ,4,0,,0,1.,4.8,0.,4.8,,0,0.,4.8,0.,4.8
1986-01-25 18:01:53.270 ,4,0,,0,1.,4.8,0.,4.8,,0,0.,4.8,0.,4.8
1986-01-25 18:01:58.070 ,4,0,,0,0.,4.8,0.,4.8,,0,0.,4.8,0.,4.8
1986-01-25 18:02:02.870 ,4,0,,0,1.,4.8,0.,4.8,,0,0.,4.8,0.,4.8
1986-01-25 18:02:07.670 ,4,0,,0,0.,4.8,0.,4.8,,0,0.,4.8,0.,4.8
1986-01-25 18:02:12.470 ,4,0,,0,1.,4.8,0.,4.8,,0,0.,4.8,0.,4.8
1986-01-25 18:02:17.270 ,4,0,,0,0.,4.8,0.,4.8,,0,0.,4.8,0.,4.8
1986-01-25 18:02:22.070 ,4,0,,0,0.,4.8,0.,4.8,,0,0.,4.8,0.,4.8
1986-01-25 18:02:26.870 ,3,0,,0,0.,4.8,0.,4.8,,0,0.,4.8,0.,4.8
1986-01-25 18:02:31.670 ,3,0,,0,1.,4.8,0.,4.8,,0,0.,4.8,0.,4.8
1986-01-25 18:02:36.470 ,3,0,,0,2.,4.8,0.,4.8,,0,0.,4.8,0.,4.8
1986-01-25 18:02:41.270 ,3,0,,0,0.,4.8,0.,4.8,,0,0.,4.8,0.,4.8
1986-01-25 18:02:46.070 ,3,0,,0,1.,4.8,0.,4.8,,0,0.,4.8,0.,4.8
1986-01-25 18:02:50.870 ,3,0,,0,0.,4.8,0.,4.8,,0,0.,4.8,0.,4.8
1986-01-25 18:02:55.670 ,3,0,,0,0.,4.8,0.,4.8,,0,0.,4.8,0.,4.8
1986-01-25 18:03:00.470 ,3,0,,0,0.,4.8,0.,4.8,,0,0.,4.8,0.,4.8
1986-01-25 18:03:05.270 ,3,0,,0,0.,4.8,0.,4.8,,0,0.,4.8,0.,4.8
1986-01-25 18:03:10.070 ,3,0,,0,0.,4.8,0.,4.8,,0,0.,4.8,0.,4.8
1986-01-25 18:03:14.870 ,2,0,,0,0.,4.8,0.,4.8,,0,0.,4.8,0.,4.8
1986-01-25 18:03:19.670 ,2,0,,0,1.,4.8,0.,4.8,,0,0.,4.8,0.,4.8
1986-01-25 18:03:24.470 ,2,0,,0,0.,4.8,0.,4.8,,0,0.,4.8,0.,4.8
1986-01-25 18:03:29.270 ,2,0,,0,0.,4.8,0.,4.8,,0,0.,4.8,0.,4.8
1986-01-25 18:03:34.070 ,2,0,,0,0.,4.8,0.,4.8,,0,0.,4.8,0.,4.8
1986-01-25 18:03:38.870 ,2,0,,0,0.,4.8,0.,4.8,,0,0.,4.8,0.,4.8
1986-01-25 18:03:43.670 ,2,0,,0,0.,4.8,0.,4.8,,0,0.,4.8,0.,4.8
1986-01-25 18:03:48.470 ,2,0,,0,0.,4.8,0.,4.8,,0,0.,4.8,0.,4.8
1986-01-25 18:03:53.270 ,2,0,,0,1.,4.8,0.,4.8,,0,0.,4.8,0.,4.8
1986-01-25 18:03:58.070 ,2,0,,0,1.,4.8,0.,4.8,,0,0.,4.8,0.,4.8
1986-01-25 18:04:02.870 ,1,0,,0,1.,4.8,0.,4.8,,0,0.,4.8,0.,4.8
1986-01-25 18:04:07.670 ,1,0,,0,0.,4.8,0.,4.8,,0,0.,4.8,0.,4.8
1986-01-25 18:04:12.470 ,1,0,,0,1.,4.8,0.,4.8,,0,0.,4.8,0.,4.8
1986-01-25 18:04:17.270 ,1,0,,0,0.,4.8,0.,4.8,,0,0.,4.8,0.,4.8
1986-01-25 18:04:22.070 ,1,0,,0,0.,4.8,0.,4.8,,0,0.,4.8,0.,4.8
1986-01-25 18:04:26.870 ,1,0,,0,1.,4.8,0.,4.8,,0,0.,4.8,0.,4.8
1986-01-25 18:04:31.670 ,1,0,,0,0.,4.8,0.,4.8,,0,0.,4.8,0.,4.8
1986-01-25 18:04:36.470 ,1,0,,0,0.,4.8,0.,4.8,,0,0.,4.8,0.,4.8
1986-01-25 18:04:41.270 ,1,0,,0,1.,4.8,0.,4.8,,0,0.,4.8,0.,4.8
1986-01-25 18:04:46.070 ,1,0,,0,0.,4.8,0.,4.8,,0,0.,4.8,0.,4.8
1986-01-25 18:04:50.870 ,0,0,,0,0.,4.8,0.,4.8,,0,0.,4.8,0.,4.8
1986-01-25 18:04:55.670 ,0,0,,0,0.,4.8,0.,4.8,,0,0.,4.8,0.,4.8
1986-01-25 18:05:00.470 ,0,0,,0,1.,4.8,0.,4.8,,0,0.,4.8,0.,4.8
1986-01-25 18:05:05.270 ,0,0,,0,0.,4.8,0.,4.8,,0,0.,4.8,0.,4.8
1986-01-25 18:05:10.070 ,0,0,,0,0.,4.8,0.,4.8,,0,0.,4.8,0.,4.8
1986-01-25 18:05:14.870 ,0,0,,0,0.,4.8,0.,4.8,,0,0.,4.8,0.,4.8
1986-01-25 18:05:19.670 ,0,0,,0,0.,4.8,0.,4.8,,0,0.,4.8,0.,4.8
1986-01-25 18:05:24.470 ,0,0,,0,1.,4.8,0.,4.8,,0,0.,4.8,0.,4.8
1986-01-25 18:05:29.270 ,0,0,,0,1.,4.8,0.,4.8,,0,0.,4.8,0.,4.8
1986-01-25 18:05:34.070 ,0,0,,0,0.,4.8,0.,4.8,,0,0.,4.8,0.,4.8
1986-01-25 18:05:38.870 ,0,0,,0,0.,4.8,0.,4.8,,0,0.,4.8,0.,4.8
1986-01-25 18:05:43.670 ,0,0,,0,0.,4.8,0.,4.8,,0,0.,4.8,0.,4.8
1986-01-25 18:05:48.470 ,0,0,,0,1.,4.8,0.,4.8,,0,0.,4.8,0.,4.8
1986-01-25 18:05:53.270 ,0,0,,0,0.,4.8,0.,4.8,,0,0.,4.8,0.,4.8
1986-01-25 18:05:58.070 ,0,0,,0,0.,4.8,0.,4.8,,0,0.,4.8,0.,4.8
1986-01-25 18:06:02.870 ,0,0,,0,0.,4.8,0.,4.8,,0,0.,4.8,0.,4.8
1986-01-25 18:06:07.670 ,0,0,,0,0.,4.8,0.,4.8,,0,0.,4.8,0.,4.8
1986-01-25 18:06:12.470 ,0,0,,0,0.,4.8,0.,4.8,,0,0.,4.8,0.,4.8
1986-01-25 18:06:17.270 ,0,0,,0,2.,4.8,0.,4.8,,0,0.,4.8,0.,4.8
1986-01-25 18:06:22.070 ,0,0,,0,0.,4.8,0.,4.8,,0,0.,4.8,0.,4.8
1986-01-25 18:06:26.870 ,1,0,,0,1.,4.8,0.,4.8,,0,0.,4.8,0.,4.8
1986-01-25 18:06:31.670 ,1,0,,0,0.,4.8,0.,4.8,,0,0.,4.8,0.,4.8
1986-01-25 18:06:36.470 ,1,0,,0,2.,4.8,0.,4.8,,0,0.,4.8,0.,4.8
1986-01-25 18:06:41.270 ,1,0,,0,0.,4.8,0.,4.8,,0,0.,4.8,0.,4.8
1986-01-25 18:06:46.070 ,1,0,,0,0.,4.8,0.,4.8,,0,0.,4.8,0.,4.8
1986-01-25 18:06:50.870 ,1,0,,0,0.,4.8,0.,4.8,,0,0.,4.8,0.,4.8
1986-01-25 18:06:55.670 ,1,0,,0,0.,4.8,0.,4.8,,0,0.,4.8,0.,4.8
1986-01-25 18:07:00.470 ,1,0,,0,0.,4.8,0.,4.8,,0,0.,4.8,0.,4.8
1986-01-25 18:07:05.270 ,1,0,,0,0.,4.8,0.,4.8,,0,0.,4.8,0.,4.8
1986-01-25 18:07:10.070 ,1,0,,0,0.,4.8,0.,4.8,,0,0.,4.8,0.,4.8
1986-01-25 18:07:14.870 ,2,0,,0,0.,4.8,0.,4.8,,0,0.,4.8,0.,4.8
1986-01-25 18:07:19.670 ,2,0,,0,0.,4.8,0.,4.8,,0,0.,4.8,0.,4.8
1986-01-25 18:07:24.470 ,2,0,,0,0.,4.8,0.,4.8,,0,0.,4.8,0.,4.8
1986-01-25 18:07:29.270 ,2,0,,0,0.,4.8,0.,4.8,,0,0.,4.8,0.,4.8
1986-01-25 18:07:34.070 ,2,0,,0,0.,4.8,0.,4.8,,0,0.,4.8,0.,4.8
1986-01-25 18:07:38.870 ,2,0,,0,0.,4.8,0.,4.8,,0,0.,4.8,0.,4.8
1986-01-25 18:07:43.670 ,2,0,,0,0.,4.8,0.,4.8,,0,0.,4.8,0.,4.8
1986-01-25 18:07:48.470 ,2,0,,0,0.,4.8,0.,4.8,,0,0.,4.8,0.,4.8
1986-01-25 18:07:53.270 ,2,0,,0,1.,4.8,0.,4.8,,0,0.,4.8,0.,4.8
1986-01-25 18:07:58.070 ,2,0,,0,1.,4.8,0.,4.8,,0,0.,4.8,0.,4.8
1986-01-25 18:08:02.870 ,3,0,,0,0.,4.8,0.,4.8,,0,0.,4.8,0.,4.8
1986-01-25 18:08:07.670 ,3,0,,0,0.,4.8,0.,4.8,,0,0.,4.8,0.,4.8
1986-01-25 18:08:12.470 ,3,0,,0,0.,4.8,0.,4.8,,0,0.,4.8,0.,4.8
1986-01-25 18:08:17.270 ,3,0,,0,0.,4.8,0.,4.8,,0,0.,4.8,0.,4.8
1986-01-25 18:08:22.070 ,3,0,,0,0.,4.8,0.,4.8,,0,0.,4.8,0.,4.8
1986-01-25 18:08:26.870 ,3,0,,0,0.,4.8,0.,4.8,,0,0.,4.8,0.,4.8
1986-01-25 18:08:31.670 ,3,0,,0,0.,4.8,0.,4.8,,0,0.,4.8,0.,4.8
1986-01-25 18:08:36.470 ,3,0,,0,0.,4.8,0.,4.8,,0,0.,4.8,0.,4.8
1986-01-25 18:08:41.270 ,3,0,,0,1.,4.8,0.,4.8,,0,0.,4.8,0.,4.8
1986-01-25 18:08:46.070 ,3,0,,0,0.,4.8,0.,4.8,,0,0.,4.8,0.,4.8
1986-01-25 18:08:50.870 ,4,0,,0,0.,4.8,0.,4.8,,0,0.,4.8,0.,4.8
1986-01-25 18:08:55.670 ,4,0,,0,0.,4.8,0.,4.8,,0,0.,4.8,0.,4.8
1986-01-25 18:09:00.470 ,4,0,,0,1.,4.8,0.,4.8,,0,0.,4.8,0.,4.8
1986-01-25 18:09:05.270 ,4,0,,0,0.,4.8,0.,4.8,,0,0.,4.8,0.,4.8
1986-01-25 18:09:10.070 ,4,0,,0,0.,4.8,0.,4.8,,0,0.,4.8,0.,4.8
1986-01-25 18:09:14.870 ,4,0,,0,0.,4.8,0.,4.8,,0,0.,4.8,0.,4.8
1986-01-25 18:09:19.670 ,4,0,,0,0.,4.8,0.,4.8,,0,0.,4.8,0.,4.8
1986-01-25 18:09:24.470 ,4,0,,0,0.,4.8,0.,4.8,,0,0.,4.8,0.,4.8
1986-01-25 18:09:29.270 ,4,0,,0,0.,4.8,0.,4.8,,0,0.,4.8,0.,4.8
1986-01-25 18:09:34.070 ,4,0,,0,1.,4.8,0.,4.8,,0,0.,4.8,0.,4.8
1986-01-25 18:09:38.870 ,5,0,,0,0.,4.8,0.,4.8,,0,0.,4.8,0.,4.8
1986-01-25 18:09:43.670 ,5,0,,0,0.,4.8,0.,4.8,,0,0.,4.8,0.,4.8
1986-01-25 18:09:48.470 ,5,0,,0,0.,4.8,0.,4.8,,0,0.,4.8,0.,4.8
1986-01-25 18:09:53.270 ,5,0,,0,0.,4.8,0.,4.8,,0,0.,4.8,0.,4.8
1986-01-25 18:09:58.070 ,5,0,,0,0.,4.8,0.,4.8,,0,0.,4.8,0.,4.8
1986-01-25 18:10:02.870 ,5,0,,0,0.,4.8,0.,4.8,,0,0.,4.8,0.,4.8
1986-01-25 18:10:07.670 ,5,0,,0,0.,4.8,0.,4.8,,0,0.,4.8,0.,4.8
1986-01-25 18:10:12.470 ,5,0,,0,0.,4.8,0.,4.8,,0,0.,4.8,0.,4.8
1986-01-25 18:10:17.270 ,5,0,,0,0.,4.8,0.,4.8,,0,0.,4.8,0.,4.8
1986-01-25 18:10:22.070 ,5,0,,0,0.,4.8,0.,4.8,,0,0.,4.8,0.,4.8
1986-01-25 18:10:26.870 ,6,0,,0,0.,4.8,0.,4.8,,0,0.,4.8,0.,4.8
1986-01-25 18:10:31.670 ,6,0,,0,0.,4.8,0.,4.8,,0,0.,4.8,0.,4.8
1986-01-25 18:10:36.470 ,6,0,,0,0.,4.8,0.,4.8,,0,0.,4.8,0.,4.8
1986-01-25 18:10:41.270 ,6,0,,0,0.,4.8,0.,4.8,,0,0.,4.8,0.,4.8
1986-01-25 18:10:46.070 ,6,0,,0,0.,4.8,0.,4.8,,0,0.,4.8,0.,4.8
1986-01-25 18:10:50.870 ,6,0,,0,1.,4.8,0.,4.8,,0,0.,4.8,0.,4.8
1986-01-25 18:10:55.670 ,6,0,,0,0.,4.8,0.,4.8,,0,0.,4.8,0.,4.8
1986-01-25 18:11:00.470 ,6,0,,0,0.,4.8,0.,4.8,,0,0.,4.8,0.,4.8
1986-01-25 18:11:05.270 ,6,0,,0,0.,4.8,0.,4.8,,0,0.,4.8,0.,4.8
1986-01-25 18:11:10.070 ,6,0,,0,0.,4.8,0.,4.8,,0,0.,4.8,0.,4.8
1986-01-25 18:11:14.870 ,7,0,,0,0.,4.8,0.,4.8,,0,0.,4.8,0.,4.8
1986-01-25 18:11:19.670 ,7,0,,0,0.,4.8,0.,4.8,,0,0.,4.8,0.,4.8
1986-01-25 18:11:24.470 ,7,0,,0,2.,4.8,0.,4.8,,0,0.,4.8,0.,4.8
1986-01-25 18:11:29.270 ,7,0,,0,3.,4.8,0.,4.8,,0,0.,4.8,0.,4.8
1986-01-25 18:11:34.070 ,7,0,,0,7.,4.8,0.,4.8,,0,0.,4.8,0.,4.8
1986-01-25 18:11:38.870 ,7,0,,0,7.,4.8,0.,4.8,,0,0.,4.8,0.,4.8
1986-01-25 18:11:43.670 ,7,0,,0,5.,4.8,0.,4.8,,0,0.,4.8,0.,4.8
1986-01-25 18:11:48.470 ,7,0,,0,5.,4.8,0.,4.8,,0,0.,4.8,0.,4.8
1986-01-25 18:11:53.270 ,7,0,,0,0.,4.8,0.,4.8,,0,0.,4.8,0.,4.8
1986-01-25 18:11:58.070 ,7,0,,0,0.,4.8,0.,4.8,,0,0.,4.8,0.,4.8
1986-01-25 18:12:02.870 ,7,0,,0,1.,4.8,0.,4.8,,0,0.,4.8,0.,4.8
1986-01-25 18:12:07.670 ,7,0,,0,1.,4.8,0.,4.8,,0,0.,4.8,0.,4.8
1986-01-25 18:12:12.470 ,7,0,,0,2.,4.8,0.,4.8,,0,0.,4.8,0.,4.8
1986-01-25 18:12:17.270 ,7,0,,0,2.,4.8,0.,4.8,,0,0.,4.8,0.,4.8
1986-01-25 18:12:22.070 ,7,0,,0,5.,4.8,0.,4.8,,0,0.,4.8,0.,4.8
1986-01-25 18:12:26.870 ,7,0,,0,8.,4.8,0.,4.8,,0,0.,4.8,0.,4.8
1986-01-25 18:12:31.670 ,7,0,,0,6.,4.8,0.,4.8,,0,0.,4.8,0.,4.8
1986-01-25 18:12:36.470 ,7,0,,0,3.,4.8,0.,4.8,,0,0.,4.8,0.,4.8
1986-01-25 18:12:41.270 ,7,0,,0,0.,4.8,0.,4.8,,0,0.,4.8,0.,4.8
1986-01-25 18:12:46.070 ,7,0,,0,2.,4.8,0.,4.8,,0,0.,4.8,0.,4.8
1986-01-25 18:12:50.870 ,6,0,,0,0.,4.8,0.,4.8,,0,0.,4.8,0.,4.8
1986-01-25 18:12:55.670 ,6,0,,0,0.,4.8,0.,4.8,,0,0.,4.8,0.,4.8
1986-01-25 18:13:00.470 ,6,0,,0,0.,4.8,0.,4.8,,0,0.,4.8,0.,4.8
1986-01-25 18:13:05.270 ,6,0,,0,0.,4.8,0.,4.8,,0,0.,4.8,0.,4.8
1986-01-25 18:13:10.070 ,6,0,,0,0.,4.8,0.,4.8,,0,0.,4.8,0.,4.8
1986-01-25 18:13:14.870 ,6,0,,0,0.,4.8,0.,4.8,,0,0.,4.8,0.,4.8
1986-01-25 18:13:19.670 ,6,0,,0,0.,4.8,0.,4.8,,0,0.,4.8,0.,4.8
1986-01-25 18:13:24.470 ,6,0,,0,0.,4.8,0.,4.8,,0,0.,4.8,0.,4.8
1986-01-25 18:13:29.270 ,6,0,,0,0.,4.8,0.,4.8,,0,0.,4.8,0.,4.8
1986-01-25 18:13:34.070 ,6,0,,0,2.,4.8,0.,4.8,,0,0.,4.8,0.,4.8
1986-01-25 18:13:38.870 ,5,0,,0,0.,4.8,0.,4.8,,0,0.,4.8,0.,4.8
1986-01-25 18:13:43.670 ,5,0,,0,0.,4.8,0.,4.8,,0,0.,4.8,0.,4.8
1986-01-25 18:13:48.470 ,5,0,,0,0.,4.8,0.,4.8,,0,0.,4.8,0.,4.8
1986-01-25 18:13:53.270 ,5,0,,0,0.,4.8,0.,4.8,,0,0.,4.8,0.,4.8
1986-01-25 18:13:58.070 ,5,0,,0,0.,4.8,0.,4.8,,0,0.,4.8,0.,4.8
1986-01-25 18:14:02.870 ,5,0,,0,0.,4.8,0.,4.8,,0,0.,4.8,0.,4.8
1986-01-25 18:14:07.670 ,5,0,,0,1.,4.8,0.,4.8,,0,0.,4.8,0.,4.8
1986-01-25 18:14:12.470 ,5,0,,0,0.,4.8,0.,4.8,,0,0.,4.8,0.,4.8
1986-01-25 18:14:17.270 ,5,0,,0,0.,4.8,0.,4.8,,0,0.,4.8,0.,4.8
1986-01-25 18:14:22.070 ,5,0,,0,0.,4.8,0.,4.8,,0,0.,4.8,0.,4.8
1986-01-25 18:14:26.870 ,4,0,,0,0.,4.8,0.,4.8,,0,0.,4.8,0.,4.8
1986-01-25 18:14:31.670 ,4,0,,0,0.,4.8,0.,4.8,,0,0.,4.8,0.,4.8
1986-01-25 18:14:36.470 ,4,0,,0,0.,4.8,0.,4.8,,0,0.,4.8,0.,4.8
1986-01-25 18:14:41.270 ,4,0,,0,0.,4.8,0.,4.8,,0,0.,4.8,0.,4.8
1986-01-25 18:14:46.070 ,4,0,,0,0.,4.8,0.,4.8,,0,0.,4.8,0.,4.8
1986-01-25 18:14:50.870 ,4,0,,0,0.,4.8,0.,4.8,,0,0.,4.8,0.,4.8
1986-01-25 18:14:55.670 ,4,0,,0,0.,4.8,0.,4.8,,0,0.,4.8,0.,4.8
1986-01-25 18:15:00.470 ,4,0,,0,0.,4.8,0.,4.8,,0,0.,4.8,0.,4.8
1986-01-25 18:15:05.270 ,4,0,,0,1.,4.8,0.,4.8,,0,0.,4.8,0.,4.8
1986-01-25 18:15:10.070 ,4,0,,0,3.,4.8,0.,4.8,,0,0.,4.8,0.,4.8
1986-01-25 18:15:14.870 ,3,0,,0,0.,4.8,0.,4.8,,0,0.,4.8,0.,4.8
1986-01-25 18:15:19.670 ,3,0,,0,0.,4.8,0.,4.8,,0,0.,4.8,0.,4.8
1986-01-25 18:15:24.470 ,3,0,,0,0.,4.8,0.,4.8,,0,0.,4.8,0.,4.8
1986-01-25 18:15:29.270 ,3,0,,0,0.,4.8,0.,4.8,,0,0.,4.8,0.,4.8
1986-01-25 18:15:34.070 ,3,0,,0,0.,4.8,0.,4.8,,0,0.,4.8,0.,4.8
1986-01-25 18:15:38.870 ,3,0,,0,0.,4.8,0.,4.8,,0,0.,4.8,0.,4.8
1986-01-25 18:15:43.670 ,3,0,,0,0.,4.8,0.,4.8,,0,0.,4.8,0.,4.8
1986-01-25 18:15:48.470 ,3,0,,0,0.,4.8,0.,4.8,,0,0.,4.8,0.,4.8
1986-01-25 18:15:53.270 ,3,0,,0,0.,4.8,0.,4.8,,0,0.,4.8,0.,4.8
1986-01-25 18:15:58.070 ,3,0,,0,0.,4.8,0.,4.8,,0,0.,4.8,0.,4.8
1986-01-25 18:16:02.870 ,2,0,,0,0.,4.8,0.,4.8,,0,0.,4.8,0.,4.8
1986-01-25 18:16:07.670 ,2,0,,0,2.,4.8,0.,4.8,,0,0.,4.8,0.,4.8
1986-01-25 18:16:12.470 ,2,0,,0,0.,4.8,0.,4.8,,0,0.,4.8,0.,4.8
1986-01-25 18:16:17.270 ,2,0,,0,0.,4.8,0.,4.8,,0,0.,4.8,0.,4.8
1986-01-25 18:16:22.070 ,2,0,,0,0.,4.8,0.,4.8,,0,0.,4.8,0.,4.8
1986-01-25 18:16:26.870 ,2,0,,0,0.,4.8,0.,4.8,,0,0.,4.8,0.,4.8
1986-01-25 18:16:31.670 ,2,0,,0,0.,4.8,0.,4.8,,0,0.,4.8,0.,4.8
1986-01-25 18:16:36.470 ,2,0,,0,0.,4.8,0.,4.8,,0,0.,4.8,0.,4.8
1986-01-25 18:16:41.270 ,2,0,,0,0.,4.8,0.,4.8,,0,0.,4.8,0.,4.8
1986-01-25 18:16:46.070 ,2,0,,0,0.,4.8,0.,4.8,,0,0.,4.8,0.,4.8
1986-01-25 18:16:50.870 ,1,0,,0,0.,4.8,0.,4.8,,0,0.,4.8,0.,4.8
1986-01-25 18:16:55.670 ,1,0,,0,1.,4.8,0.,4.8,,0,0.,4.8,0.,4.8
1986-01-25 18:17:00.470 ,1,0,,0,0.,4.8,0.,4.8,,0,0.,4.8,0.,4.8
1986-01-25 18:17:05.270 ,1,0,,0,0.,4.8,0.,4.8,,0,0.,4.8,0.,4.8
1986-01-25 18:17:10.070 ,1,0,,0,0.,4.8,0.,4.8,,0,0.,4.8,0.,4.8
1986-01-25 18:17:14.870 ,1,0,,0,0.,4.8,0.,4.8,,0,0.,4.8,0.,4.8
1986-01-25 18:17:19.670 ,1,0,,0,0.,4.8,0.,4.8,,0,0.,4.8,0.,4.8
1986-01-25 18:17:24.470 ,1,0,,0,0.,4.8,0.,4.8,,0,0.,4.8,0.,4.8
1986-01-25 18:17:29.270 ,1,0,,0,1.,4.8,0.,4.8,,0,0.,4.8,0.,4.8
1986-01-25 18:17:34.070 ,1,0,,0,1.,4.8,0.,4.8,,0,0.,4.8,0.,4.8
1986-01-25 18:17:38.870 ,0,0,,0,0.,4.8,0.,4.8,,0,0.,4.8,0.,4.8
1986-01-25 18:17:43.670 ,0,0,,0,2.,4.8,0.,4.8,,0,0.,4.8,0.,4.8
1986-01-25 18:17:48.470 ,0,0,,0,1.,4.8,0.,4.8,,0,0.,4.8,0.,4.8
1986-01-25 18:17:53.270 ,0,0,,0,0.,4.8,0.,4.8,,0,0.,4.8,0.,4.8
1986-01-25 18:17:58.070 ,0,0,,0,0.,4.8,0.,4.8,,0,0.,4.8,0.,4.8
1986-01-25 18:18:02.870 ,0,0,,0,0.,4.8,0.,4.8,,0,0.,4.8,0.,4.8
1986-01-25 18:18:07.670 ,0,0,,0,1.,4.8,0.,4.8,,0,0.,4.8,0.,4.8
1986-01-25 18:18:12.470 ,0,0,,0,0.,4.8,0.,4.8,,0,0.,4.8,0.,4.8
1986-01-25 18:18:17.270 ,0,0,,0,1.,4.8,0.,4.8,,0,0.,4.8,0.,4.8
1986-01-25 18:18:22.070 ,0,0,,0,1.,4.8,0.,4.8,,0,0.,4.8,0.,4.8
1986-01-25 18:18:26.860 ,0,0,,0,0.,4.8,0.,4.8,,0,0.,4.8,0.,4.8
1986-01-25 18:18:31.670 ,0,0,,0,0.,4.8,0.,4.8,,0,0.,4.8,0.,4.8
1986-01-25 18:18:36.460 ,0,0,,0,1.,4.8,0.,4.8,,0,0.,4.8,0.,4.8
1986-01-25 18:18:41.270 ,0,0,,0,0.,4.8,0.,4.8,,0,0.,4.8,0.,4.8
1986-01-25 18:18:46.070 ,0,0,,0,0.,4.8,0.,4.8,,0,0.,4.8,0.,4.8
1986-01-25 18:18:50.860 ,0,0,,0,0.,4.8,0.,4.8,,0,0.,4.8,0.,4.8
1986-01-25 18:18:55.670 ,0,0,,0,0.,4.8,0.,4.8,,0,0.,4.8,0.,4.8
1986-01-25 18:19:00.460 ,0,0,,0,0.,4.8,0.,4.8,,0,0.,4.8,0.,4.8
1986-01-25 18:19:05.270 ,0,0,,0,1.,4.8,0.,4.8,,0,0.,4.8,0.,4.8
1986-01-25 18:19:10.070 ,0,0,,0,2.,4.8,0.,4.8,,0,0.,4.8,0.,4.8
1986-01-25 18:19:14.860 ,1,0,,0,0.,4.8,0.,4.8,,0,0.,4.8,0.,4.8
1986-01-25 18:19:19.670 ,1,0,,0,0.,4.8,0.,4.8,,0,0.,4.8,0.,4.8
1986-01-25 18:19:24.460 ,1,0,,0,0.,4.8,0.,4.8,,0,0.,4.8,0.,4.8
1986-01-25 18:19:29.270 ,1,0,,0,0.,4.8,0.,4.8,,0,0.,4.8,0.,4.8
1986-01-25 18:19:34.060 ,1,0,,0,0.,4.8,0.,4.8,,0,0.,4.8,0.,4.8
1986-01-25 18:19:38.860 ,1,0,,0,0.,4.8,0.,4.8,,0,0.,4.8,0.,4.8
1986-01-25 18:19:43.670 ,1,0,,0,0.,4.8,0.,4.8,,0,0.,4.8,0.,4.8
1986-01-25 18:19:48.460 ,1,0,,0,0.,4.8,0.,4.8,,0,0.,4.8,0.,4.8
1986-01-25 18:19:53.270 ,1,0,,0,0.,4.8,0.,4.8,,0,0.,4.8,0.,4.8
1986-01-25 18:19:58.060 ,1,0,,0,0.,4.8,0.,4.8,,0,0.,4.8,0.,4.8
1986-01-25 18:20:02.860 ,2,0,,0,0.,4.8,0.,4.8,,0,0.,4.8,0.,4.8
1986-01-25 18:20:07.670 ,2,0,,0,0.,4.8,0.,4.8,,0,0.,4.8,0.,4.8
1986-01-25 18:20:12.460 ,2,0,,0,0.,4.8,0.,4.8,,0,0.,4.8,0.,4.8
1986-01-25 18:20:17.270 ,2,0,,0,0.,4.8,0.,4.8,,0,0.,4.8,0.,4.8
1986-01-25 18:20:22.060 ,2,0,,0,0.,4.8,0.,4.8,,0,0.,4.8,0.,4.8
1986-01-25 18:20:26.860 ,2,0,,0,0.,4.8,0.,4.8,,0,0.,4.8,0.,4.8
1986-01-25 18:20:31.670 ,2,0,,0,0.,4.8,0.,4.8,,0,0.,4.8,0.,4.8
1986-01-25 18:20:36.460 ,2,0,,0,0.,4.8,0.,4.8,,0,0.,4.8,0.,4.8
1986-01-25 18:20:41.270 ,2,0,,0,0.,4.8,0.,4.8,,0,0.,4.8,0.,4.8
1986-01-25 18:20:46.060 ,2,0,,0,1.,4.8,0.,4.8,,0,0.,4.8,0.,4.8
1986-01-25 18:20:50.860 ,3,0,,0,0.,4.8,0.,4.8,,0,0.,4.8,0.,4.8
1986-01-25 18:20:55.670 ,3,0,,0,0.,4.8,0.,4.8,,0,0.,4.8,0.,4.8
1986-01-25 18:21:00.460 ,3,0,,0,0.,4.8,0.,4.8,,0,0.,4.8,0.,4.8
1986-01-25 18:21:05.270 ,3,0,,0,0.,4.8,0.,4.8,,0,0.,4.8,0.,4.8
1986-01-25 18:21:10.070 ,3,0,,0,1.,4.8,0.,4.8,,0,0.,4.8,0.,4.8
1986-01-25 18:21:14.860 ,3,0,,0,0.,4.8,0.,4.8,,0,0.,4.8,0.,4.8
1986-01-25 18:21:19.670 ,3,0,,0,0.,4.8,0.,4.8,,0,0.,4.8,0.,4.8
1986-01-25 18:21:24.460 ,3,0,,0,0.,4.8,0.,4.8,,0,0.,4.8,0.,4.8
1986-01-25 18:21:29.270 ,3,0,,0,2.,4.8,0.,4.8,,0,0.,4.8,0.,4.8
1986-01-25 18:21:34.070 ,3,0,,0,2.,4.8,0.,4.8,,0,0.,4.8,0.,4.8
1986-01-25 18:21:38.860 ,4,0,,0,1.,4.8,0.,4.8,,0,0.,4.8,0.,4.8
1986-01-25 18:21:43.670 ,4,0,,0,1.,4.8,0.,4.8,,0,0.,4.8,0.,4.8
1986-01-25 18:21:48.460 ,4,0,,0,0.,4.8,0.,4.8,,0,0.,4.8,0.,4.8
1986-01-25 18:21:53.270 ,4,0,,0,1.,4.8,0.,4.8,,0,0.,4.8,0.,4.8
1986-01-25 18:21:58.070 ,4,0,,0,0.,4.8,0.,4.8,,0,0.,4.8,0.,4.8
1986-01-25 18:22:02.860 ,4,0,,0,0.,4.8,0.,4.8,,0,0.,4.8,0.,4.8
1986-01-25 18:22:07.670 ,4,0,,0,0.,4.8,0.,4.8,,0,0.,4.8,0.,4.8
1986-01-25 18:22:12.460 ,4,0,,0,0.,4.8,0.,4.8,,0,0.,4.8,0.,4.8
1986-01-25 18:22:17.270 ,4,0,,0,1.,4.8,0.,4.8,,0,0.,4.8,0.,4.8
1986-01-25 18:22:22.070 ,4,0,,0,1.,4.8,0.,4.8,,0,0.,4.8,0.,4.8
1986-01-25 18:22:26.860 ,5,0,,0,0.,4.8,0.,4.8,,0,0.,4.8,0.,4.8
1986-01-25 18:22:31.670 ,5,0,,0,0.,4.8,0.,4.8,,0,0.,4.8,0.,4.8
1986-01-25 18:22:36.460 ,5,0,,0,0.,4.8,0.,4.8,,0,0.,4.8,0.,4.8
1986-01-25 18:22:41.270 ,5,0,,0,0.,4.8,0.,4.8,,0,0.,4.8,0.,4.8
1986-01-25 18:22:46.070 ,5,0,,0,0.,4.8,0.,4.8,,0,0.,4.8,0.,4.8
1986-01-25 18:22:50.860 ,5,0,,0,0.,4.8,0.,4.8,,0,0.,4.8,0.,4.8
1986-01-25 18:22:55.670 ,5,0,,0,0.,4.8,0.,4.8,,0,0.,4.8,0.,4.8
1986-01-25 18:23:00.460 ,5,0,,0,0.,4.8,0.,4.8,,0,0.,4.8,0.,4.8
1986-01-25 18:23:05.270 ,5,0,,0,1.,4.8,0.,4.8,,0,0.,4.8,0.,4.8
1986-01-25 18:23:10.070 ,5,0,,0,0.,4.8,0.,4.8,,0,0.,4.8,0.,4.8
1986-01-25 18:23:14.860 ,6,0,,0,0.,4.8,0.,4.8,,0,0.,4.8,0.,4.8
1986-01-25 18:23:19.670 ,6,0,,0,0.,4.8,0.,4.8,,0,0.,4.8,0.,4.8
1986-01-25 18:23:24.460 ,6,0,,0,0.,4.8,0.,4.8,,0,0.,4.8,0.,4.8
1986-01-25 18:23:29.270 ,6,0,,0,0.,4.8,0.,4.8,,0,0.,4.8,0.,4.8
1986-01-25 18:23:34.060 ,6,0,,0,0.,4.8,0.,4.8,,0,0.,4.8,0.,4.8
1986-01-25 18:23:38.860 ,6,0,,0,0.,4.8,0.,4.8,,0,0.,4.8,0.,4.8
1986-01-25 18:23:43.670 ,6,0,,0,0.,4.8,0.,4.8,,0,0.,4.8,0.,4.8
1986-01-25 18:23:48.460 ,6,0,,0,0.,4.8,0.,4.8,,0,0.,4.8,0.,4.8
1986-01-25 18:23:53.270 ,6,0,,0,0.,4.8,0.,4.8,,0,0.,4.8,0.,4.8
1986-01-25 18:23:58.060 ,6,0,,0,0.,4.8,0.,4.8,,0,0.,4.8,0.,4.8
1986-01-25 18:24:02.860 ,7,0,,0,0.,4.8,0.,4.8,,0,0.,4.8,0.,4.8
1986-01-25 18:24:07.670 ,7,0,,0,1.,4.8,0.,4.8,,0,0.,4.8,0.,4.8
1986-01-25 18:24:12.460 ,7,0,,0,2.,4.8,0.,4.8,,0,0.,4.8,0.,4.8
1986-01-25 18:24:17.270 ,7,0,,0,7.,4.8,0.,4.8,,0,0.,4.8,0.,4.8
1986-01-25 18:24:22.060 ,7,0,,0,6.,4.8,0.,4.8,,0,0.,4.8,0.,4.8
1986-01-25 18:24:26.860 ,7,0,,0,3.,4.8,0.,4.8,,0,0.,4.8,0.,4.8
1986-01-25 18:24:31.670 ,7,0,,0,6.,4.8,0.,4.8,,0,0.,4.8,0.,4.8
1986-01-25 18:24:36.460 ,7,0,,0,3.,4.8,0.,4.8,,0,0.,4.8,0.,4.8
1986-01-25 18:24:41.270 ,7,0,,0,2.,4.8,0.,4.8,,0,0.,4.8,0.,4.8
1986-01-25 18:24:46.060 ,7,0,,0,0.,4.8,0.,4.8,,0,0.,4.8,0.,4.8
1986-01-25 18:24:50.860 ,7,0,,0,1.,4.8,0.,4.8,,0,0.,4.8,0.,4.8
1986-01-25 18:24:55.670 ,7,0,,0,0.,4.8,0.,4.8,,0,0.,4.8,0.,4.8
1986-01-25 18:25:00.460 ,7,0,,0,0.,4.8,0.,4.8,,0,0.,4.8,0.,4.8
1986-01-25 18:25:05.270 ,7,0,,0,7.,4.8,0.,4.8,,0,0.,4.8,0.,4.8
1986-01-25 18:25:10.070 ,7,0,,0,5.,4.8,0.,4.8,,0,0.,4.8,0.,4.8
1986-01-25 18:25:14.860 ,7,0,,0,7.,4.8,0.,4.8,,0,0.,4.8,0.,4.8
1986-01-25 18:25:19.670 ,7,0,,0,2.,4.8,0.,4.8,,0,0.,4.8,0.,4.8
1986-01-25 18:25:24.460 ,7,0,,0,3.,4.8,0.,4.8,,0,0.,4.8,0.,4.8
1986-01-25 18:25:29.270 ,7,0,,0,1.,4.8,0.,4.8,,0,0.,4.8,0.,4.8
1986-01-25 18:25:34.070 ,7,0,,0,1.,4.8,0.,4.8,,0,0.,4.8,0.,4.8
1986-01-25 18:25:38.860 ,6,0,,0,0.,4.8,0.,4.8,,0,0.,4.8,0.,4.8
1986-01-25 18:25:43.670 ,6,0,,0,0.,4.8,0.,4.8,,0,0.,4.8,0.,4.8
1986-01-25 18:25:48.460 ,6,0,,0,1.,4.8,0.,4.8,,0,0.,4.8,0.,4.8
1986-01-25 18:25:53.270 ,6,0,,0,0.,4.8,0.,4.8,,0,0.,4.8,0.,4.8
1986-01-25 18:25:58.070 ,6,0,,0,0.,4.8,0.,4.8,,0,0.,4.8,0.,4.8
1986-01-25 18:26:02.860 ,6,0,,0,0.,4.8,0.,4.8,,0,0.,4.8,0.,4.8
1986-01-25 18:26:07.670 ,6,0,,0,0.,4.8,0.,4.8,,0,0.,4.8,0.,4.8
1986-01-25 18:26:12.460 ,6,0,,0,0.,4.8,0.,4.8,,0,0.,4.8,0.,4.8
1986-01-25 18:26:17.270 ,6,0,,0,0.,4.8,0.,4.8,,0,0.,4.8,0.,4.8
1986-01-25 18:26:22.070 ,6,0,,0,0.,4.8,0.,4.8,,0,0.,4.8,0.,4.8
1986-01-25 18:26:26.860 ,5,0,,0,1.,4.8,0.,4.8,,0,0.,4.8,0.,4.8
1986-01-25 18:26:31.670 ,5,0,,0,1.,4.8,0.,4.8,,0,0.,4.8,0.,4.8
1986-01-25 18:26:36.460 ,5,0,,0,0.,4.8,0.,4.8,,0,0.,4.8,0.,4.8
1986-01-25 18:26:41.270 ,5,0,,0,1.,4.8,0.,4.8,,0,0.,4.8,0.,4.8
1986-01-25 18:26:46.070 ,5,0,,0,0.,4.8,0.,4.8,,0,0.,4.8,0.,4.8
1986-01-25 18:26:50.860 ,5,0,,0,0.,4.8,0.,4.8,,0,0.,4.8,0.,4.8
1986-01-25 18:26:55.670 ,5,0,,0,0.,4.8,0.,4.8,,0,0.,4.8,0.,4.8
1986-01-25 18:27:00.460 ,5,0,,0,1.,4.8,0.,4.8,,0,0.,4.8,0.,4.8
1986-01-25 18:27:05.270 ,5,0,,0,2.,4.8,0.,4.8,,0,0.,4.8,0.,4.8
1986-01-25 18:27:10.070 ,5,0,,0,1.,4.8,0.,4.8,,0,0.,4.8,0.,4.8
1986-01-25 18:27:14.860 ,4,0,,0,0.,4.8,0.,4.8,,0,0.,4.8,0.,4.8
1986-01-25 18:27:19.670 ,4,0,,0,0.,4.8,0.,4.8,,0,0.,4.8,0.,4.8
1986-01-25 18:27:24.460 ,4,0,,0,2.,4.8,0.,4.8,,0,0.,4.8,0.,4.8
1986-01-25 18:27:29.270 ,4,0,,0,0.,4.8,0.,4.8,,0,0.,4.8,0.,4.8
1986-01-25 18:27:34.060 ,4,0,,0,1.,4.8,0.,4.8,,0,0.,4.8,0.,4.8
1986-01-25 18:27:38.860 ,4,0,,0,0.,4.8,0.,4.8,,0,0.,4.8,0.,4.8
1986-01-25 18:27:43.670 ,4,0,,0,0.,4.8,0.,4.8,,0,0.,4.8,0.,4.8
1986-01-25 18:27:48.460 ,4,0,,0,0.,4.8,0.,4.8,,0,0.,4.8,0.,4.8
1986-01-25 18:27:53.270 ,4,0,,0,2.,4.8,0.,4.8,,0,0.,4.8,0.,4.8
1986-01-25 18:27:58.060 ,4,0,,0,1.,4.8,0.,4.8,,0,0.,4.8,0.,4.8
1986-01-25 18:28:02.860 ,3,0,,0,0.,4.8,0.,4.8,,0,0.,4.8,0.,4.8
1986-01-25 18:28:07.670 ,3,0,,0,0.,4.8,0.,4.8,,0,0.,4.8,0.,4.8
1986-01-25 18:28:12.460 ,3,0,,0,0.,4.8,0.,4.8,,0,0.,4.8,0.,4.8
1986-01-25 18:28:17.270 ,3,0,,0,0.,4.8,0.,4.8,,0,0.,4.8,0.,4.8
1986-01-25 18:28:22.060 ,3,0,,0,0.,4.8,0.,4.8,,0,0.,4.8,0.,4.8
1986-01-25 18:28:26.860 ,3,0,,0,0.,4.8,0.,4.8,,0,0.,4.8,0.,4.8
1986-01-25 18:28:31.670 ,3,0,,0,0.,4.8,0.,4.8,,0,0.,4.8,0.,4.8
1986-01-25 18:28:36.460 ,3,0,,0,1.,4.8,0.,4.8,,0,0.,4.8,0.,4.8
1986-01-25 18:28:41.270 ,3,0,,0,3.,4.8,0.,4.8,,0,0.,4.8,0.,4.8
1986-01-25 18:28:46.060 ,3,0,,0,0.,4.8,0.,4.8,,0,0.,4.8,0.,4.8
1986-01-25 18:28:50.860 ,2,0,,0,0.,4.8,0.,4.8,,0,0.,4.8,0.,4.8
1986-01-25 18:28:55.670 ,2,0,,0,0.,4.8,0.,4.8,,0,0.,4.8,0.,4.8
1986-01-25 18:29:00.460 ,2,0,,0,2.,4.8,0.,4.8,,0,0.,4.8,0.,4.8
1986-01-25 18:29:05.270 ,2,0,,0,0.,4.8,0.,4.8,,0,0.,4.8,0.,4.8
1986-01-25 18:29:10.060 ,2,0,,0,0.,4.8,0.,4.8,,0,0.,4.8,0.,4.8
1986-01-25 18:29:14.860 ,2,0,,0,0.,4.8,0.,4.8,,0,0.,4.8,0.,4.8
1986-01-25 18:29:19.670 ,2,0,,0,0.,4.8,0.,4.8,,0,0.,4.8,0.,4.8
1986-01-25 18:29:24.460 ,2,0,,0,1.,4.8,0.,4.8,,0,0.,4.8,0.,4.8
1986-01-25 18:29:29.270 ,2,0,,0,0.,4.8,0.,4.8,,0,0.,4.8,0.,4.8
1986-01-25 18:29:34.070 ,2,0,,0,1.,4.8,0.,4.8,,0,0.,4.8,0.,4.8
1986-01-25 18:29:38.860 ,1,0,,0,1.,4.8,0.,4.8,,0,0.,4.8,0.,4.8
1986-01-25 18:29:43.670 ,1,0,,0,0.,4.8,0.,4.8,,0,0.,4.8,0.,4.8
1986-01-25 18:29:48.460 ,1,0,,0,0.,4.8,0.,4.8,,0,0.,4.8,0.,4.8
1986-01-25 18:29:53.270 ,1,0,,0,0.,4.8,0.,4.8,,0,0.,4.8,0.,4.8
1986-01-25 18:29:58.070 ,1,0,,0,0.,4.8,0.,4.8,,0,0.,4.8,0.,4.8
1986-01-25 18:30:02.860 ,1,0,,0,0.,4.8,0.,4.8,,0,0.,4.8,0.,4.8
1986-01-25 18:30:07.670 ,1,0,,0,0.,4.8,0.,4.8,,0,0.,4.8,0.,4.8
1986-01-25 18:30:12.460 ,1,0,,0,0.,4.8,0.,4.8,,0,0.,4.8,0.,4.8